HAIYANG 1

导读

HAIYANG 1(海洋一号)是中国于2002年5月15日成功发射的首颗海洋水色遥感卫星,作为中国海洋卫星系列的开篇之作,它开启了中国自主海洋遥感监测的新时代。该卫星搭载了水色扫描仪和海岸带成像仪,可获取全球海洋水色水温、海岸带环境等数据,为海洋资源开发、环境保护、灾害预警与科学研究提供关键支撑,填补了中国在海洋卫星遥感领域的空白,奠定了中国海洋遥感技术发展的基础。

Basic Information
目录编号:
27430
目录名称:
HAIYANG 1
国际标识:
2002-024A
轨道中心:
EARTH
卫星名称:
HAIYANG 1
卫星全名:
--
卫星状态:
在轨 (已飞行8885 天)
发射日期:
2002-05-15 UTC
国别 :
中国 (CN)
星等 :
--
This satellite is enrolled in the Space Conjunction Data Service (SCDS) and the current flight risk assessment level is: No High Risk
Orbit Information
数据来源 国际轨道数据 AOE轨道数据
星历时间 2026-09-10T22:42:20+0800
18小时前
查看轨道信息
2026-09-06T07:00:00+0800
5天前
查看轨道信息
半长轴 7159.22km 7159.222km
偏心率 0.0008503 0.0007952
轨道倾角 98.739° 98.737°
近地点辐角 179.115° 193.480°
升交点赤经 216.380° 211.681°
平近点角 181.005° 286.041°
近地点 774.995km 775.391km
远地点 787.171km 786.779km
周期 100.475分钟 100.475分钟
每日圈数 14.331916 14.331911
Detailed Information
使用方式:
暂无
2D Orbit Map
3D Orbit Map
Orbit Altitude Analysis Chart
Orbit Inclination Analysis Chart
Orbit Comprehensive Analysis Chart
View Comprehensive Chart
Conjunction Data List
Event ID Objects TCA Miss Dist (km) Collision Risk Probability Collision Risk Index (CRI) Action
CDM_260913-150502-743004-153421
2026-09-13T
15:05:30+0000
1.334 km
极远距离
9.224741E-6 低风险 0.54
CDM_260913-005502-743004-296023
2026-09-13T
00:55:02+0000
2.348 km
极远距离
1.872205E-6 低风险 0.4
Miss Distance Evolution Trend with All Objects
Collision Probability Evolution Trend with All Objects